Wahoo, NE

6:51 AM CDT on August 28, 2016 (GMT -0500)
Wahoo Municipal

Weather History for KAHQ - January, 2013

Change the Weather History Date:

Saturday, January 5, 2013

  Actual Average Record
Temperature  
Mean Temperature 22 °F -  
Max Temperature 34 °F 31 °F 68 °F (2012)
Min Temperature 10 °F 8 °F -10 °F (1971)
Degree Days  
Heating Degree Days 43    
Moisture  
Dew Point 16 °F    
Average Humidity 80    
Maximum Humidity 93    
Minimum Humidity 65    
Precipitation  
Precipitation 0.00 in - - ()
Sea Level Pressure  
Sea Level Pressure 30.07 in    
Wind  
Wind Speed 8 mph (WSW)    
Max Wind Speed 18 mph    
Max Gust Speed 24 mph    
Visibility 10 miles    
Events      
Averages and records for this station are not official NWS values.
T = Trace of Precipitation, MM = Missing Value Source: NWS Daily Summary

Daily Weather History Graph

Daily Weather History Graph

Search for Another Location

Airport or City:

Trip Planner

Search our weather history database for the weather conditions in past years. The results will help you decide how hot, cold, wet, or windy it might be!

Date:

Astronomy

Jan. 05, 2013 Rise Set
Actual Time 7:52 AM CST 5:12 PM CST
Civil Twilight 7:21 AM CST 5:42 PM CST
Nautical Twilight 6:46 AM CST 6:17 PM CST
Astronomical Twilight 6:13 AM CST 6:50 PM CST
Moon 12:57 AM CST (1/5) 12:04 PM CST (1/5)
Length of Visible Light 10h 21m
Length of Day
9h 19m
Last Quarter, 44% of the Moon is Illuminated
Jan 5
Last Quarter
Jan 11
New
Jan 18
First Quarter
Jan 26
Full
Feb 3
Last Quarter

Hourly Weather History & Observations

Time (CST) Temp. Windchill Dew Point Humidity Pressure Visibility Wind Dir Wind Speed Gust Speed Precip Events Conditions
12:15 AM 10.8 °F -1.1 °F 7.3 °F 86% 30.11 in 10.0 mi South 8.1 mph - N/A   Clear
12:35 AM 12.2 °F 0.7 °F 8.6 °F 85% 30.10 in 10.0 mi South 8.1 mph - N/A   Clear
12:55 AM 15.8 °F 5.1 °F 11.8 °F 84% 30.09 in 10.0 mi South 8.1 mph - N/A   Clear
1:15 AM 19.6 °F 8.9 °F 13.8 °F 78% 30.08 in 10.0 mi SSW 9.2 mph - N/A   Clear
1:35 AM 16.5 °F 5.1 °F 11.8 °F 82% 30.08 in 10.0 mi South 9.2 mph - N/A   Clear
1:55 AM 18.0 °F 6.9 °F 13.5 °F 83% 30.07 in 10.0 mi South 9.2 mph - N/A   Clear
2:15 AM 17.1 °F 10.0 °F 11.8 °F 80% 30.07 in 10.0 mi South 4.6 mph - N/A   Clear
2:35 AM 14.2 °F 4.1 °F 9.7 °F 82% 30.08 in 10.0 mi South 6.9 mph - N/A   Clear
2:55 AM 13.6 °F 4.6 °F 9.7 °F 84% 30.07 in 10.0 mi South 5.8 mph - N/A   Clear
3:15 AM 13.1 °F - 9.7 °F 86% 30.07 in 10.0 mi Calm Calm - N/A   Clear
3:35 AM 14.5 °F - 11.3 °F 87% 30.07 in 10.0 mi Calm Calm - N/A   Clear
3:55 AM 12.6 °F - 8.8 °F 85% 30.07 in 10.0 mi Calm Calm - N/A   Clear
4:15 AM 11.7 °F - 8.4 °F 87% 30.07 in 10.0 mi Calm Calm - N/A   Clear
4:35 AM 12.2 °F - 9.5 °F 89% 30.06 in 10.0 mi Calm Calm - N/A   Clear
4:55 AM 12.9 °F - 10.8 °F 91% 30.05 in 10.0 mi Calm Calm - N/A   Clear
5:15 AM 12.6 °F 3.4 °F 10.0 °F 90% 30.04 in 10.0 mi South 5.8 mph - N/A   Clear
5:35 AM 14.9 °F - 12.2 °F 89% 30.05 in 10.0 mi Calm Calm - N/A   Clear
5:55 AM 13.6 °F - 10.8 °F 88% 30.04 in 10.0 mi Calm Calm - N/A   Clear
6:15 AM 16.5 °F - 13.6 °F 88% 30.03 in 10.0 mi Calm Calm - N/A   Clear
6:35 AM 16.3 °F 5.7 °F 13.5 °F 88% 30.02 in 10.0 mi SSW 8.1 mph - N/A   Clear
6:55 AM 11.8 °F 0.3 °F 9.0 °F 88% 30.02 in 10.0 mi South 8.1 mph - N/A   Clear
7:15 AM 13.5 °F 7.5 °F 11.3 °F 91% 30.04 in 10.0 mi SSW 3.5 mph - N/A   Clear
7:35 AM 12.6 °F 4.8 °F 10.2 °F 90% 30.04 in 10.0 mi South 4.6 mph - N/A   Clear
7:55 AM 10.9 °F -4.1 °F 8.8 °F 91% 30.04 in 7.0 mi SSE 12.7 mph - N/A   Clear
8:15 AM 11.7 °F 1.1 °F 9.3 °F 90% 30.04 in 7.0 mi South 6.9 mph - N/A   Clear
8:35 AM 12.7 °F 3.6 °F 10.6 °F 91% 30.04 in 7.0 mi South 5.8 mph - N/A   Clear
8:55 AM 17.4 °F 7.1 °F 15.8 °F 93% 30.05 in 7.0 mi WSW 8.1 mph - N/A   Scattered Clouds
9:15 AM 20.3 °F 11.5 °F 18.1 °F 91% 30.06 in 10.0 mi SW 6.9 mph - N/A   Scattered Clouds
9:55 AM 23.4 °F 14.3 °F 18.5 °F 82% 30.04 in 10.0 mi SW 8.1 mph 17.3 mph N/A   Clear
10:15 AM 22.6 °F 12.6 °F 18.0 °F 82% 30.03 in 10.0 mi South 9.2 mph - N/A   Clear
10:55 AM 23.7 °F 12.6 °F 17.4 °F 77% 30.05 in 10.0 mi WSW 11.5 mph - N/A   Clear
11:15 AM 23.7 °F 13.3 °F 16.5 °F 74% 30.03 in 10.0 mi SW 10.4 mph - N/A   Clear
11:35 AM 24.1 °F 13.7 °F 16.7 °F 73% 30.03 in 10.0 mi WSW 10.4 mph - N/A   Clear
11:55 AM 24.3 °F 13.9 °F 16.5 °F 72% 30.01 in 10.0 mi WSW 10.4 mph - N/A   Clear
12:15 PM 24.3 °F 12.2 °F 17.1 °F 74% 30.03 in 10.0 mi West 13.8 mph 18.4 mph N/A   Clear
12:35 PM 25.5 °F 17.8 °F 17.6 °F 72% 30.01 in 10.0 mi WSW 6.9 mph - N/A   Clear
12:55 PM 26.6 °F 17.5 °F 18.1 °F 70% 30.00 in 10.0 mi West 9.2 mph - N/A   Clear
1:15 PM 27.1 °F 18.9 °F 18.1 °F 69% 30.00 in 10.0 mi West 8.1 mph - N/A   Clear
1:35 PM 27.5 °F 18.0 °F 18.3 °F 68% 30.00 in 10.0 mi West 10.4 mph - N/A   Clear
1:55 PM 28.2 °F 19.5 °F 19.0 °F 68% 30.00 in 10.0 mi West 9.2 mph - N/A   Clear
2:15 PM 29.3 °F 22.3 °F 19.8 °F 68% 30.00 in 10.0 mi WSW 6.9 mph - N/A   Clear
2:35 PM 30.0 °F 24.1 °F 20.3 °F 67% 30.00 in 10.0 mi West 5.8 mph - N/A   Clear
2:55 PM 31.1 °F 26.4 °F 21.6 °F 68% 30.01 in 10.0 mi West 4.6 mph - N/A   Clear
3:15 PM 32.0 °F 27.5 °F 22.8 °F 69% 30.02 in 10.0 mi WSW 4.6 mph - N/A   Clear
3:35 PM 32.0 °F 27.5 °F 23.2 °F 70% 30.02 in 10.0 mi WSW 4.6 mph - N/A   Clear
3:55 PM 32.0 °F 27.5 °F 23.2 °F 70% 30.03 in 10.0 mi SW 4.6 mph - N/A   Clear
4:15 PM 32.0 °F 28.7 °F 23.4 °F 70% 30.03 in 10.0 mi WSW 3.5 mph - N/A   Clear
4:55 PM 31.6 °F 28.3 °F 23.5 °F 72% 30.04 in 10.0 mi West 3.5 mph - N/A   Clear
5:15 PM 30.4 °F 26.9 °F 23.0 °F 74% 30.04 in 10.0 mi WSW 3.5 mph - N/A   Clear
5:35 PM 30.7 °F 22.6 °F 23.4 °F 74% 30.05 in 10.0 mi WNW 9.2 mph - N/A   Clear
5:55 PM 34.5 °F 25.3 °F 23.9 °F 65% 30.06 in 10.0 mi NW 13.8 mph - N/A   Clear
6:15 PM 33.1 °F 23.9 °F 23.7 °F 68% 30.08 in 10.0 mi NW 12.7 mph - N/A   Clear
6:35 PM 32.4 °F 22.1 °F 23.0 °F 68% 30.09 in 10.0 mi NW 15.0 mph - N/A   Clear
6:55 PM 31.1 °F 21.4 °F 22.6 °F 71% 30.09 in 10.0 mi NNW 12.7 mph - N/A   Clear
7:15 PM 27.5 °F 15.9 °F 21.2 °F 77% 30.10 in 10.0 mi NNW 15.0 mph - N/A   Clear
7:55 PM 25.2 °F 15.1 °F 19.6 °F 79% 30.12 in 10.0 mi NNW 10.4 mph - N/A   Clear
8:15 PM 24.3 °F 12.2 °F 19.4 °F 82% 30.13 in 10.0 mi NNW 13.8 mph - N/A   Clear
8:35 PM 24.4 °F 13.0 °F 19.2 °F 81% 30.15 in 10.0 mi NNW 12.7 mph - N/A   Clear
8:55 PM 23.4 °F 12.2 °F 18.3 °F 81% 30.16 in 10.0 mi NNW 11.5 mph - N/A   Mostly Cloudy
9:15 PM 24.3 °F 13.3 °F 18.9 °F 80% 30.16 in 10.0 mi NW 11.5 mph - N/A   Overcast
9:35 PM 24.4 °F 11.9 °F 18.5 °F 78% 30.17 in 10.0 mi NW 15.0 mph 20.7 mph N/A   Overcast
9:55 PM 23.2 °F 9.0 °F 16.9 °F 77% 30.18 in 10.0 mi NNW 18.4 mph 24.2 mph N/A   Mostly Cloudy
10:15 PM 21.0 °F 7.6 °F 15.4 °F 79% 30.19 in 10.0 mi NW 15.0 mph 19.6 mph N/A   Scattered Clouds
10:35 PM 21.0 °F 7.1 °F 15.6 °F 80% 30.20 in 10.0 mi NW 16.1 mph 23.0 mph N/A   Scattered Clouds
10:55 PM 22.1 °F 8.0 °F 16.7 °F 80% 30.20 in 10.0 mi NW 17.3 mph 23.0 mph N/A   Overcast
11:15 PM 22.3 °F 8.2 °F 17.2 °F 81% 30.21 in 10.0 mi NW 17.3 mph 21.9 mph N/A   Overcast
11:35 PM 22.6 °F 10.1 °F 17.4 °F 80% 30.22 in 10.0 mi NNW 13.8 mph - N/A   Overcast
11:55 PM 23.0 °F 9.6 °F 17.6 °F 80% 30.21 in 10.0 mi NW 16.1 mph 21.9 mph N/A   Overcast